• Em Portugal
  • Lista de países
  • Para 7 dias
  • Temperatura da água
  • Mapas de satélite
  • Mapa do tempo
  • Widgets de tempo
  • user-avatar
    Iniciar Sessão

    Previsão horária em Orange Walk

    Hoje, 23 Janeiro, Terça-feira

    Tempo Temperatura Precipitação Vento Pressão Humidade
    00:00 +23°C° 0 mm 1 m/s 758 mmHg 98%
    01:00 +23°C° 0,1 mm 1 m/s 758 mmHg 99%
    02:00 +23°C° 0,1 mm 1 m/s 758 mmHg 99%
    03:00 +23°C° 0,1 mm 1 m/s 758 mmHg 99%
    04:00 +23°C° 0 mm 1 m/s 758 mmHg 99%
    05:00 +23°C° 0 mm 1 m/s 758 mmHg 99%
    06:00 +23°C° 0 mm 1 m/s 758 mmHg 99%
    07:00 +25°C° 0,1 mm 1 m/s 759 mmHg 94%
    08:00 +26°C° 0,1 mm 1 m/s 759 mmHg 89%
    09:00 +27°C° 0,1 mm 1 m/s 760 mmHg 83%
    10:00 +28°C° 0,5 mm 1 m/s 759 mmHg 80%
    11:00 +29°C° 0,5 mm 2 m/s 759 mmHg 76%
    12:00 +30°C° 0,5 mm 2 m/s 759 mmHg 72%
    13:00 +30°C° 0,4 mm 2 m/s 759 mmHg 69%
    14:00 +31°C° 0,4 mm 2 m/s 758 mmHg 66%
    15:00 +31°C° 0,4 mm 2 m/s 757 mmHg 62%
    16:00 +29°C° 0,1 mm 2 m/s 758 mmHg 70%
    17:00 +28°C° 0,1 mm 2 m/s 758 mmHg 77%
    18:00 +26°C° 0,1 mm 2 m/s 758 mmHg 85%
    19:00 +25°C° 0 mm 2 m/s 759 mmHg 89%
    20:00 +25°C° 0 mm 2 m/s 759 mmHg 93%
    21:00 +24°C° 0 mm 2 m/s 759 mmHg 97%
    22:00 +24°C° 0 mm 1 m/s 760 mmHg 98%
    23:00 +23°C° 0 mm 1 m/s 760 mmHg 98%

    Amanhã, 24 Janeiro, Quarta-feira

    Tempo Temperatura Precipitação Vento Pressão Humidade
    00:00 +23°C° 0 mm 1 m/s 760 mmHg 98%
    01:00 +23°C° 0,1 mm 1 m/s 760 mmHg 99%
    02:00 +23°C° 0,1 mm 1 m/s 759 mmHg 99%
    03:00 +23°C° 0,1 mm 2 m/s 759 mmHg 99%
    04:00 +23°C° 0,1 mm 2 m/s 759 mmHg 99%
    05:00 +23°C° 0,1 mm 2 m/s 760 mmHg 99%
    06:00 +23°C° 0,1 mm 2 m/s 760 mmHg 99%
    07:00 +24°C° 0,2 mm 2 m/s 760 mmHg 96%
    08:00 +25°C° 0,2 mm 2 m/s 761 mmHg 93%
    09:00 +25°C° 0,2 mm 2 m/s 762 mmHg 90%
    10:00 +26°C° 0,8 mm 2 m/s 761 mmHg 88%
    11:00 +27°C° 0,8 mm 2 m/s 761 mmHg 85%
    12:00 +28°C° 0,8 mm 2 m/s 761 mmHg 83%
    13:00 +28°C° 0,7 mm 2 m/s 760 mmHg 81%
    14:00 +28°C° 0,7 mm 2 m/s 759 mmHg 78%
    15:00 +29°C° 0,7 mm 2 m/s 759 mmHg 76%
    16:00 +27°C° 0,1 mm 2 m/s 759 mmHg 81%
    17:00 +26°C° 0,1 mm 2 m/s 759 mmHg 86%
    18:00 +25°C° 0,1 mm 1 m/s 759 mmHg 91%
    19:00 +24°C° 0 mm 1 m/s 760 mmHg 93%
    20:00 +24°C° 0 mm 2 m/s 761 mmHg 95%
    21:00 +24°C° 0 mm 2 m/s 761 mmHg 97%
    22:00 +23°C° 0,1 mm 2 m/s 761 mmHg 97%
    23:00 +23°C° 0,1 mm 2 m/s 761 mmHg 98%

    Depois de amanhã, 25 Janeiro, Quinta-feira

    Tempo Temperatura Precipitação Vento Pressão Humidade
    00:00 +23°C° 0,1 mm 2 m/s 761 mmHg 99%
    01:00 +23°C° 0,1 mm 2 m/s 761 mmHg 99%
    02:00 +23°C° 0,1 mm 2 m/s 761 mmHg 98%
    03:00 +23°C° 0,1 mm 2 m/s 760 mmHg 98%
    04:00 +23°C° 0,2 mm 2 m/s 760 mmHg 97%
    05:00 +23°C° 0,2 mm 2 m/s 760 mmHg 97%
    06:00 +23°C° 0,2 mm 2 m/s 761 mmHg 96%
    07:00 +24°C° 0,2 mm 2 m/s 761 mmHg 95%
    08:00 +24°C° 0,2 mm 2 m/s 762 mmHg 94%
    09:00 +24°C° 0,2 mm 2 m/s 762 mmHg 93%
    10:00 +25°C° 0,3 mm 2 m/s 762 mmHg 89%
    11:00 +26°C° 0,3 mm 3 m/s 762 mmHg 84%
    12:00 +28°C° 0,3 mm 3 m/s 761 mmHg 80%
    13:00 +27°C° 0,7 mm 3 m/s 761 mmHg 82%
    14:00 +27°C° 0,7 mm 3 m/s 760 mmHg 84%
    15:00 +27°C° 0,7 mm 3 m/s 759 mmHg 86%
    16:00 +26°C° 0,8 mm 2 m/s 759 mmHg 90%
    17:00 +25°C° 0,8 mm 2 m/s 759 mmHg 93%
    18:00 +24°C° 0,8 mm 2 m/s 760 mmHg 97%
    19:00 +23°C° 0,7 mm 2 m/s 760 mmHg 97%
    20:00 +23°C° 0,7 mm 2 m/s 761 mmHg 98%
    21:00 +23°C° 0,7 mm 2 m/s 761 mmHg 98%
    22:00 +23°C° 0,6 mm 2 m/s 761 mmHg 98%
    23:00 +23°C° 0,6 mm 2 m/s 761 mmHg 98%

    26 Janeiro, Sexta-feira

    Tempo Temperatura Precipitação Vento Pressão Humidade
    00:00 +23°C° 0,6 mm 2 m/s 761 mmHg 99%
    01:00 +23°C° 1,4 mm 2 m/s 760 mmHg 99%
    02:00 +23°C° 1,4 mm 2 m/s 760 mmHg 99%
    03:00 +23°C° 1,4 mm 2 m/s 760 mmHg 99%
    04:00 +23°C° 1,5 mm 2 m/s 760 mmHg 98%
    05:00 +23°C° 1,5 mm 2 m/s 760 mmHg 98%
    06:00 +23°C° 1,5 mm 2 m/s 760 mmHg 98%
    07:00 +24°C° 1,1 mm 2 m/s 761 mmHg 97%
    08:00 +24°C° 1,1 mm 2 m/s 761 mmHg 95%
    09:00 +25°C° 1,1 mm 3 m/s 762 mmHg 93%
    10:00 +26°C° 0,6 mm 3 m/s 761 mmHg 91%
    11:00 +26°C° 0,6 mm 3 m/s 761 mmHg 89%
    12:00 +27°C° 0,6 mm 3 m/s 761 mmHg 87%
    13:00 +26°C° 0,6 mm 3 m/s 760 mmHg 88%
    14:00 +26°C° 0,6 mm 3 m/s 759 mmHg 89%
    15:00 +26°C° 0,6 mm 2 m/s 758 mmHg 90%
    16:00 +25°C° 0,3 mm 2 m/s 758 mmHg 92%
    17:00 +25°C° 0,3 mm 2 m/s 759 mmHg 94%
    18:00 +24°C° 0,3 mm 2 m/s 759 mmHg 96%
    19:00 +24°C° 0,8 mm 2 m/s 759 mmHg 97%
    20:00 +24°C° 0,8 mm 2 m/s 760 mmHg 97%
    21:00 +23°C° 0,8 mm 2 m/s 760 mmHg 98%
    22:00 +23°C° 2 mm 2 m/s 760 mmHg 98%
    23:00 +23°C° 2 mm 2 m/s 760 mmHg 98%

    27 Janeiro, Sábado

    Tempo Temperatura Precipitação Vento Pressão Humidade
    00:00 +23°C° 2 mm 2 m/s 759 mmHg 99%
    01:00 +23°C° 1,9 mm 2 m/s 759 mmHg 99%
    02:00 +23°C° 1,9 mm 2 m/s 759 mmHg 99%
    03:00 +23°C° 1,9 mm 2 m/s 758 mmHg 99%
    04:00 +23°C° 1,1 mm 2 m/s 758 mmHg 99%
    05:00 +23°C° 1,1 mm 1 m/s 759 mmHg 99%
    06:00 +23°C° 1,1 mm 1 m/s 759 mmHg 99%
    07:00 +24°C° 0,7 mm 1 m/s 759 mmHg 97%
    08:00 +25°C° 0,7 mm 2 m/s 760 mmHg 95%
    09:00 +26°C° 0,7 mm 2 m/s 760 mmHg 93%
    10:00 +26°C° 0,8 mm 2 m/s 760 mmHg 92%
    11:00 +26°C° 0,8 mm 2 m/s 760 mmHg 92%
    12:00 +27°C° 0,8 mm 2 m/s 759 mmHg 91%
    13:00 +27°C° 0,7 mm 2 m/s 759 mmHg 91%
    14:00 +27°C° 0,7 mm 2 m/s 758 mmHg 91%
    15:00 +26°C° 0,7 mm 2 m/s 757 mmHg 92%
    16:00 +26°C° 0,1 mm 2 m/s 758 mmHg 94%
    17:00 +25°C° 0,1 mm 1 m/s 758 mmHg 95%
    18:00 +25°C° 0,1 mm 1 m/s 758 mmHg 97%
    19:00 +24°C° 0 mm 1 m/s 758 mmHg 98%
    20:00 +24°C° 0 mm 1 m/s 759 mmHg 98%
    21:00 +23°C° 0 mm 1 m/s 759 mmHg 98%
    22:00 +23°C° 0 mm 1 m/s 759 mmHg 99%
    23:00 +23°C° 0 mm 1 m/s 759 mmHg 99%

    28 Janeiro, Domingo

    Tempo Temperatura Precipitação Vento Pressão Humidade
    00:00 +23°C° 0 mm 1 m/s 759 mmHg 99%
    01:00 +23°C° 0 mm 1 m/s 758 mmHg 99%
    02:00 +23°C° 0 mm 1 m/s 758 mmHg 99%
    03:00 +23°C° 0 mm 1 m/s 758 mmHg 99%
    04:00 +23°C° 0,1 mm 1 m/s 758 mmHg 99%
    05:00 +23°C° 0,1 mm 1 m/s 759 mmHg 99%
    06:00 +23°C° 0,1 mm 1 m/s 759 mmHg 99%
    07:00 +24°C° 0 mm 1 m/s 760 mmHg 97%
    08:00 +24°C° 0 mm 1 m/s 760 mmHg 95%
    09:00 +25°C° 0 mm 1 m/s 761 mmHg 92%
    10:00 +27°C° 0,1 mm 1 m/s 760 mmHg 85%
    11:00 +28°C° 0,1 mm 1 m/s 760 mmHg 77%
    12:00 +30°C° 0,1 mm 1 m/s 759 mmHg 69%
    13:00 +30°C° 0,6 mm 1 m/s 759 mmHg 72%
    14:00 +29°C° 0,6 mm 2 m/s 758 mmHg 75%
    15:00 +29°C° 0,6 mm 2 m/s 757 mmHg 78%
    16:00 +28°C° 0,6 mm 2 m/s 758 mmHg 84%
    17:00 +26°C° 0,6 mm 1 m/s 758 mmHg 89%
    18:00 +25°C° 0,6 mm 1 m/s 758 mmHg 95%
    19:00 +24°C° 0,1 mm 1 m/s 759 mmHg 96%
    20:00 +24°C° 0,1 mm 1 m/s 759 mmHg 97%
    21:00 +23°C° 0,1 mm 1 m/s 760 mmHg 98%
    22:00 +23°C° 0,2 mm 1 m/s 759 mmHg 98%
    23:00 +23°C° 0,2 mm 1 m/s 759 mmHg 98%
    Mostrar mais